Flag for Central African Republic

Past Weather in Kaga-Bandoro, Central African Republic — Yesterday and Last 2 Weeks

Now
90 °F

Sunny.


Feels Like: 92 °F
Forecast: 90 / 70 °F
Wind: 7 mph from East

Location: Sarh Airport
Current Time: Oct 27, 2020 at 11:34:21 am
Latest Report: Oct 27, 2020 at 10:00 am
Visibility: 10 mi
Pressure29.89 "Hg
Humidity: 46%
Dew Point: 66 °F
Location of Kaga-BandoroLocation

Past Weather in Kaga-Bandoro — Graph

°F

Kaga-Bandoro Temperature Yesterday

Maximum temperature yesterday: 93 °F (at 2:00 pm)
Minimum temperature yesterday: 73 °F (at 1:00 am)
Average temperature yesterday: 82 °F

High & Low Weather Summary for the Past Weeks

 TemperatureHumidityPressure
High97 °F (Oct 20, 1:00 pm)100% (Oct 14, 5:00 am)30.01 "Hg (Oct 14, 5:00 am)
Low72 °F (Oct 14, 5:00 am)28% (Oct 20, 11:00 am)29.53 "Hg (Oct 26, 6:00 pm)
Average82 °F74%29.86 "Hg
* Reported Oct 12 10:00 am — Oct 27 10:00 am, Kaga-Bandoro. Weather by CustomWeather, © 2020

Note: Actual official high and low records may vary slightly from our data, if they occured in-between our weather recording intervals... More about our weather records

Kaga-Bandoro Weather History for the Previous 24 Hours

Scroll right to see more
 ConditionsComfort  
Time TempWeatherWind HumidityBarometerVisibility
10:00 am
Tue, Oct 27
90 °FSunny.7 mph46%29.89 "Hg10 mi
9:00 am90 °FSunny.5 mph43%29.89 "Hg10 mi
7:00 am77 °FFog.No wind94%29.89 "Hg2 mi
6:00 am73 °FSunny.No wind94%29.86 "Hg10 mi
5:00 am73 °FClear.No wind94%29.83 "Hg10 mi
4:00 am75 °FClear.No wind89%29.83 "Hg10 mi
2:00 am75 °FClear.No wind94%29.83 "Hg10 mi
1:00 am77 °FClear.No wind89%29.83 "Hg10 mi
12:00 am77 °FClear.No wind89%29.86 "Hg10 mi
11:00 pm
Mon, Oct 26
77 °FClear.No wind89%29.86 "Hg10 mi
10:00 pm79 °FClear.No wind84%29.86 "Hg10 mi
9:00 pm81 °FClear.No wind79%29.86 "Hg10 mi
8:00 pm82 °FClear.No wind79%29.83 "Hg10 mi
7:00 pm84 °FPassing clouds.No wind70%29.80 "HgN/A
6:00 pm88 °FPassing clouds.No wind62%29.53 "HgN/A
5:00 pm90 °FPassing clouds.5 mph63%29.77 "HgN/A
4:00 pm93 °FPassing clouds.5 mph47%29.77 "HgN/A
3:00 pm93 °FPassing clouds.5 mph47%29.77 "HgN/A
2:00 pm93 °FPassing clouds.No wind47%29.77 "HgN/A
1:00 pm90 °FScattered clouds.5 mph52%29.80 "HgN/A
12:00 pm90 °FPassing clouds.5 mph59%29.83 "HgN/A
11:00 am90 °FPassing clouds.5 mph55%29.86 "HgN/A
Weather by CustomWeather, © 2020

See weather overview